Regional Weather Roundup
Issued by NWS Upton, NY

Current Version | Previous Version | Graphics & Text | Print | Product List | Glossary Off
Versions: 1 2 3 4 5 6 7 8 9 10 11 12 13 14 15 16 17 18 19 20 21 22 23 24 25 26 27 28 29 30 31 32 33 34 35 36 37 38 39 40 41 42 43 44 45 46 47 48 49 50

664
ASUS41 KOKX 291504
RWROKX

REGIONAL WEATHER ROUNDUP
NATIONAL WEATHER SERVICE NEW YORK NY
1100 AM EDT MON AUG 29 2016

NOTE: "FAIR" INDICATES FEW OR NO CLOUDS BELOW 12,000 FEET WITH NO
SIGNIFICANT WEATHER AND/OR OBSTRUCTIONS TO VISIBILITY.

NYZ071-072-176-178-NJZ106-104-291600-
NEW YORK CITY METRO AREA

CITY           SKY/WX    TMP DP  RH WIND       PRES   REMARKS
Central Park   NOT AVBL
LaGuardia APRT MOSUNNY   86  68  54 NW12      30.10S
Kennedy INTL   MOSUNNY   85  68  56 NW13      30.11S
Newark/Liberty MOSUNNY   88  64  44 N17G23    30.11S
Bronx Bot Gard   N/A     84  66  54 W2        30.11F
Wall St Helipt SUNNY     88  68  51 W9        30.12S HX  91
Teterboro      SUNNY     86  64  47 N13       30.10S
$$

NYZ177-179-078>081-291600-
LONG ISLAND NEW YORK

CITY           SKY/WX    TMP DP  RH WIND       PRES   REMARKS
Farmingdale    MOSUNNY   87  67  51 N10       30.10F HX  90
MacArthur/ISP  PTSUNNY   84  66  54 NW7       30.10F
Shirley        MOSUNNY   84  68  58 VRB7      30.10F
Riverhead      NOT AVBL
Westhampton    CLOUDY    83  66  56 NW10      30.11F
Southampton      N/A     82  70  65 NW6       30.06S
Bridgehampton    N/A     81  72  74 E1        30.09S
East Hampton   FAIR      79  68  68 W6        30.09S
Montauk          N/A     80  69  69 W8        30.10S
$$

NYZ052-065-067-291600-
HUDSON VALLEY

CITY           SKY/WX    TMP DP  RH WIND       PRES   REMARKS
White Plains   MOSUNNY   83  68  60 NW8       30.12S
Newburgh       MOSUNNY   82  70  65 N6        30.15S
Montgomery     SUNNY     84  67  56 NW8       30.14R
Poughkeepsie   MOSUNNY   81  67  62 NE12      30.12S
Albany         MOSUNNY   79  58  48 NW16      30.14S
$$

NJZ001-105-106-008-010-013-015-019>022-104-291600-
NEW JERSEY

CITY           SKY/WX    TMP DP  RH WIND       PRES   REMARKS
Newark/Liberty MOSUNNY   88  64  44 N17G23    30.11S
Teterboro      SUNNY     86  64  47 N13       30.10S
Caldwell       SUNNY     85  67  54 N8        30.13S
Morristown     MOSUNNY   84  68  58 N7G14     30.13S
Somerville     SUNNY     85  67  54 N7G16     30.12S
Linden         FAIR      87  65  47 NW8       30.13F
Sussex         SUNNY     82  67  60 NW10G17   30.15S
Abdover          N/A     82  67  60 VRB6      30.16S
Trenton        SUNNY     85  68  56 N8        30.13F
Millville      SUNNY     83  66  56 W6        30.15F
Atlantic City  SUNNY     85  64  49 VRB7      30.14F
Wrightstown    SUNNY     84  69  61 VRB5      30.11F
Toms River     NOT AVBL
Belmar         CLOUDY    84  69  60 W8        30.13F
$$

PAZ047>061-062-071-291600-
EASTERN PENNSYLVANIA

CITY           SKY/WX    TMP DP  RH WIND       PRES   REMARKS
Philadelphia   PTSUNNY   85  67  54 NW6       30.14F
Allentown      MOSUNNY   83  68  60 VRB3      30.16S
Scranton       SUNNY     79  63  57 NW9       30.21S
$$

CTZ002-004>006-009-010-012-RIZ004-006-007-MAZ004-011-015-291600-
SOUTHERN NEW ENGLAND
 IN CT

CITY           SKY/WX    TMP DP  RH WIND       PRES   REMARKS
Bradley INTL   MOSUNNY   84  62  47 NW15      30.09F
Hartford       SUNNY     84  65  52 NW7       30.08F
Danbury        SUNNY     79  67  66 N9        30.14R
Wtrbury/Oxford MOSUNNY   79  66  65 N12G17    30.15F
Bridgeport     SUNNY     85  67  54 N12       30.10S
Meriden        SUNNY     85  66  53 N12G17    30.09F
New Haven      MOSUNNY   84  67  56 NW9G16    30.10S
Chester        FAIR      81  66  61 NW10G17   30.11S
Groton         MOSUNNY   82  70  66 SW6       30.07F
Wilimantic     PTSUNNY   81  68  64 VRB7G18   30.09F

 IN RI

CITY           SKY/WX    TMP DP  RH WIND       PRES   REMARKS
Providence     PTSUNNY   81  67  62 W10       30.07S
Block Island   PTSUNNY   79  68  69 W14       30.08F
Westerly       PTSUNNY   80  67  64 SW8       30.09S
 IN MA

CITY           SKY/WX    TMP DP  RH WIND       PRES   REMARKS
Boston         MOSUNNY   83  67  58 W13       30.03F
Worcester      SUNNY     76  64  66 W16G24    30.09F
Westfield      MOSUNNY   84  61  45 NW14      30.08F
Provincetown   CLOUDY    77  68  73 W14       30.04F
Nantucket      MOSUNNY   76  69  79 SW10      30.06F
$$

ANZ330-335-338-340-345-350-353-355-291600-
COASTAL MARINE OBSERVATIONS


STATION/POSITION TIME  SKY/WX   TEMP    WIND        PRES    VSBY  WAVE
                                AIR SEA DIR/SP/G                  HT/PER
                 (UTC)          (F)     (DEG/KT/KT) (MB)    (MI)  (FT/S)
NY HARB ENTRANCE 1350            76 76  260/  8/ 10 1019.6          3/14
20S FIRE ISLAND  1350            74 75  250/ 12/ 12 1019.4          3/14
GREAT SOUTH BAY  1400            78 79  260/  6/  8   N/A
23 SSW MONTAUK P 1350            75 76  250/ 14/ 16 1019.6          3/14
15 E BARNEGAT LI 1400               77                N/A           3/13
HUDSON CANYON    1350            77 78              1020.2          3/14
KINGS POINT      1418            79 76              1019.4
EXECUTION ROCKS  1400            78     320/  2/  4   N/A
CENTRAL LI SOUND 1400            76 75  270/ 10/ 10   N/A           1/ 4
EASTERN LI SOUND 1400            76 71  250/ 10/ 12   N/A
ROBBINS REEF     1400            81     330/  7/  9 1019.0
$$


>>>>>>>>>>>>>>>>>>>>>>>>>>>> KEY <<<<<<<<<<<<<<<<<<<<<<<<<<<
>                                                          <
>     SKY/WX - Sky Condition/Present Weather               <
>     TMP    - Temperature in Fahrenheit                   <
>     DP     - Dew Point in Fahrenheit                     <
>     RH     - Relative Humidity in Percent                <
>     WIND   - Direction (from) and Speed in MPH           <
>     PRES   - Mean Sea Level Pressure (inches of Hg)      <
>     WCI    - Wind Chill Index                            <
>     VSB    - VISIBILITY IN MILES                         <
>     HX     - HEAT INDEX                                  <
>     TC     - TEMPERATURE IN CELSIUS                      <
>     VRB    - VARIABLE WIND DIRECTION                     <
>                                                          <
>>>>>>>>>>>>>>>>>>>>>>>>>>>> KEY <<<<<<<<<<<<<<<<<<<<<<<<<<<




USA.gov is the U.S. government's official web portal to all federal, state and local government web resources and services.